| time (UTC) | temp C | wind direction | speed KPH | gust KPH | rain 1hr cm | rain 24hr cm | rain mn cm | humidity % | barometer mb |
| 20260504150241 | 13 | 311 | 17.7 | 33.8 | 0.00 | 0.00 | 0.00 | 76 | 1013.5 |
| 20260504141239 | 13 | 271 | 17.7 | 41.8 | 0.00 | 0.00 | 0.00 | 68 | 1013.5 |
| 20260504140737 | 13 | 286 | 14.5 | 30.6 | 0.00 | 0.00 | 0.00 | 69 | 1013.5 |
| 20260504140236 | 14 | 298 | 14.5 | 30.6 | 0.00 | 0.00 | 0.00 | 70 | 1013.4 |
| 20260504130735 | 14 | 238 | 22.5 | 43.5 | 0.00 | 0.00 | 0.00 | 68 | 1013.4 |
| 20260504130234 | 14 | 336 | 24.1 | 43.5 | 0.00 | 0.00 | 0.00 | 67 | 1013.4 |
| 20260504120234 | 15 | 281 | 25.7 | 43.5 | 0.00 | 0.00 | 0.00 | 65 | 1013.8 |
| 20260504100534 | 16 | 297 | 20.9 | 41.8 | 0.00 | 0.00 | 0.00 | 57 | 1014.8 |
| 20260504081657 | 15 | 313 | 20.9 | 41.8 | 0.00 | 0.00 | 0.00 | 57 | 1014.3 |
| 20260504081200 | 15 | 284 | 19.3 | 33.8 | 0.00 | 0.00 | 0.00 | 58 | 1014.3 |
| 20260504080656 | 14 | 258 | 20.9 | 33.8 | 0.00 | 0.00 | 0.00 | 58 | 1014.2 |
| 20260504080152 | 14 | 311 | 20.9 | 33.8 | 0.00 | 0.00 | 0.00 | 59 | 1014.3 |
| 20260504070134 | 13 | 258 | 17.7 | 32.2 | 0.00 | 0.00 | 0.00 | 66 | 1014.3 |
| 20260504060116 | 12 | 304 | 14.5 | 33.8 | 0.00 | 0.00 | 0.00 | 71 | 1013.7 |
| 20260504050111 | 11 | 242 | 11.3 | 27.4 | 0.00 | 0.00 | 0.00 | 82 | 1013.4 |
| 20260504045605 | 11 | 233 | 11.3 | 27.4 | 0.00 | 0.00 | 0.00 | 83 | 1013.3 |
| 20260504044605 | 11 | 249 | 11.3 | 22.5 | 0.00 | 0.00 | 0.00 | 83 | 1013.3 |
| 20260504044105 | 11 | 343 | 12.9 | 29.0 | 0.00 | 0.00 | 0.00 | 83 | 1013.3 |
| 20260504043608 | 11 | 257 | 12.9 | 29.0 | 0.00 | 0.00 | 0.00 | 82 | 1013.3 |
| 20260504043106 | 11 | 295 | 11.3 | 20.9 | 0.00 | 0.00 | 0.00 | 81 | 1013.3 |
| 20260504042104 | 11 | 268 | 11.3 | 27.4 | 0.00 | 0.00 | 0.00 | 82 | 1013.3 |
| 20260504041607 | 11 | 241 | 12.9 | 27.4 | 0.00 | 0.00 | 0.00 | 81 | 1013.2 |
| 20260504041104 | 11 | 273 | 11.3 | 24.1 | 0.00 | 0.00 | 0.00 | 81 | 1013.3 |
| 20260504040605 | 11 | 238 | 11.3 | 24.1 | 0.00 | 0.00 | 0.00 | 81 | 1013.1 |
| 20260504035605 | 11 | 260 | 9.7 | 24.1 | 0.00 | 0.00 | 0.00 | 80 | 1013.0 |
| 20260504035104 | 11 | 254 | 9.7 | 19.3 | 0.00 | 0.00 | 0.00 | 81 | 1013.1 |
| 20260504034604 | 11 | 281 | 11.3 | 19.3 | 0.00 | 0.00 | 0.00 | 80 | 1013.0 |
| 20260504034103 | 11 | 322 | 11.3 | 22.5 | 0.00 | 0.00 | 0.00 | 80 | 1013.1 |
| 20260504033604 | 11 | 247 | 12.9 | 22.5 | 0.00 | 0.00 | 0.00 | 79 | 1013.0 |
| 20260504033105 | 11 | 296 | 12.9 | 22.5 | 0.00 | 0.00 | 0.00 | 79 | 1012.8 |
| 20260504032605 | 11 | 296 | 11.3 | 22.5 | 0.00 | 0.00 | 0.00 | 79 | 1012.5 |
| 20260504031108 | 10 | 326 | 11.3 | 22.5 | 0.00 | 0.00 | 0.00 | 80 | 1012.6 |
| 20260504030606 | 10 | 309 | 11.3 | 24.1 | 0.00 | 0.00 | 0.00 | 81 | 1012.8 |
| 20260504025606 | 10 | 263 | 9.7 | 19.3 | 0.00 | 0.00 | 0.00 | 81 | 1012.9 |
| 20260504024606 | 10 | 281 | 11.3 | 22.5 | 0.00 | 0.00 | 0.00 | 82 | 1012.6 |
| 20260504024416 | 10 | 279 | 9.7 | 17.7 | 0.00 | 0.00 | 0.00 | 82 | 1012.8 |
| 20260504023603 | 10 | 277 | 8.0 | 20.9 | 0.00 | 0.00 | 0.00 | 83 | 1012.8 |
| 20260504023417 | 10 | 301 | 9.7 | 20.9 | 0.00 | 0.00 | 0.00 | 83 | 1012.8 |
| 20260504022558 | 10 | 291 | 9.7 | 16.1 | 0.00 | 0.00 | 0.00 | 83 | 1012.9 |
| 20260504022102 | 10 | 293 | 9.7 | 12.9 | 0.00 | 0.00 | 0.00 | 83 | 1012.8 |
| 20260504021547 | 10 | 293 | 9.7 | 20.9 | 0.00 | 0.00 | 0.00 | 83 | 1012.8 |
| 20260504021039 | 10 | 317 | 9.7 | 20.9 | 0.00 | 0.00 | 0.00 | 84 | 1012.8 |
| 20260504020533 | 10 | 283 | 8.0 | 17.7 | 0.00 | 0.00 | 0.00 | 84 | 1012.8 |
| 20260504015528 | 10 | 252 | 8.0 | 24.1 | 0.00 | 0.00 | 0.00 | 84 | 1012.6 |
| 20260504015027 | 10 | 300 | 8.0 | 24.1 | 0.00 | 0.00 | 0.00 | 84 | 1012.6 |
| 20260504014526 | 10 | 287 | 8.0 | 17.7 | 0.00 | 0.00 | 0.00 | 84 | 1012.8 |
| 20260504014021 | 10 | 290 | 9.7 | 17.7 | 0.00 | 0.00 | 0.00 | 84 | 1012.6 |
| 20260504013521 | 10 | 307 | 9.7 | 17.7 | 0.00 | 0.00 | 0.00 | 84 | 1012.6 |
| 20260504012520 | 10 | 303 | 8.0 | 17.7 | 0.00 | 0.00 | 0.00 | 85 | 1012.6 |
| 20260504012022 | 10 | 313 | 8.0 | 17.7 | 0.00 | 0.00 | 0.00 | 85 | 1012.6 |
| 20260504011526 | 10 | 286 | 6.4 | 17.7 | 0.00 | 0.00 | 0.00 | 85 | 1012.8 |
| 20260504011022 | 10 | 265 | 8.0 | 19.3 | 0.00 | 0.00 | 0.00 | 85 | 1012.8 |
| 20260504010523 | 10 | 265 | 9.7 | 19.3 | 0.00 | 0.00 | 0.00 | 85 | 1012.9 |
| 20260504010021 | 10 | 290 | 6.4 | 17.7 | 0.00 | 0.00 | 0.00 | 85 | 1013.0 |
| 20260504005519 | 10 | 277 | 6.4 | 19.3 | 0.00 | 0.00 | 0.00 | 85 | 1012.9 |
| 20260504004512 | 10 | 263 | 6.4 | 14.5 | 0.00 | 0.00 | 0.00 | 86 | 1012.9 |
| 20260504004010 | 10 | 311 | 8.0 | 19.3 | 0.00 | 0.00 | 0.00 | 86 | 1012.9 |
| 20260504003513 | 10 | 293 | 9.7 | 19.3 | 0.00 | 0.00 | 0.00 | 86 | 1012.9 |
| 20260504003013 | 10 | 313 | 8.0 | 17.7 | 0.00 | 0.00 | 0.00 | 86 | 1012.8 |
| 20260504002511 | 10 | 232 | 8.0 | 17.7 | 0.00 | 0.00 | 0.00 | 87 | 1012.9 |
| 20260504001511 | 10 | 285 | 9.7 | 19.3 | 0.00 | 0.00 | 0.00 | 87 | 1012.9 |
| 20260504001009 | 10 | 296 | 9.7 | 19.3 | 0.00 | 0.00 | 0.00 | 87 | 1012.9 |
| 20260504000514 | 10 | 286 | 9.7 | 19.3 | 0.00 | 0.00 | 0.00 | 87 | 1012.9 |
| 20260504000011 | 10 | 261 | 11.3 | 20.9 | 0.00 | 0.00 | 0.00 | 88 | 1012.9 |
| 20260503235507 | 10 | 290 | 11.3 | 20.9 | 0.00 | 0.00 | 0.00 | 88 | 1012.9 |
| 20260503235008 | 10 | 302 | 9.7 | 19.3 | 0.00 | 0.00 | 0.00 | 88 | 1013.0 |
| 20260503234511 | 10 | 313 | 11.3 | 20.9 | 0.00 | 0.00 | 0.00 | 88 | 1012.9 |
| 20260503233008 | 10 | 265 | 14.5 | 24.1 | 0.00 | 0.00 | 0.00 | 89 | 1012.8 |
| 20260503232509 | 10 | 257 | 14.5 | 27.4 | 0.00 | 0.00 | 0.00 | 89 | 1012.8 |
| 20260503232002 | 11 | 288 | 16.1 | 27.4 | 0.00 | 0.00 | 0.00 | 89 | 1012.6 |
| 20260503231501 | 11 | 294 | 17.7 | 30.6 | 0.00 | 0.00 | 0.00 | 90 | 1012.9 |
| 20260503231004 | 11 | 335 | 17.7 | 30.6 | 0.00 | 0.00 | 0.00 | 90 | 1012.9 |
| 20260503230504 | 11 | 271 | 14.5 | 30.6 | 0.00 | 0.00 | 0.00 | 90 | 1012.8 |
| 20260503230001 | 11 | 325 | 14.5 | 27.4 | 0.00 | 0.00 | 0.00 | 90 | 1012.9 |
| 20260503225504 | 11 | 325 | 16.1 | 27.4 | 0.00 | 0.00 | 0.00 | 90 | 1012.8 |
| 20260503225001 | 11 | 331 | 16.1 | 25.7 | 0.00 | 0.00 | 0.00 | 90 | 1012.8 |
| 20260503224454 | 11 | 337 | 16.1 | 30.6 | 0.00 | 0.00 | 0.00 | 90 | 1012.6 |
| 20260503223955 | 11 | 334 | 17.7 | 30.6 | 0.00 | 0.00 | 0.00 | 89 | 1012.8 |
| 20260503222449 | 12 | 304 | 14.5 | 25.7 | 0.00 | 0.00 | 0.00 | 89 | 1012.6 |
| 20260503221950 | 12 | 297 | 14.5 | 25.7 | 0.00 | 0.00 | 0.00 | 89 | 1012.8 |
| 20260503221443 | 12 | 305 | 14.5 | 29.0 | 0.00 | 0.00 | 0.00 | 88 | 1012.9 |
| 20260503220946 | 12 | 284 | 16.1 | 30.6 | 0.00 | 0.00 | 0.00 | 88 | 1013.0 |
| 20260503220447 | 12 | 319 | 16.1 | 32.2 | 0.00 | 0.00 | 0.00 | 87 | 1013.2 |
| 20260503215946 | 12 | 277 | 16.1 | 32.2 | 0.00 | 0.00 | 0.00 | 87 | 1013.1 |
| 20260503215443 | 12 | 344 | 16.1 | 29.0 | 0.00 | 0.00 | 0.00 | 87 | 1013.2 |
| 20260503214945 | 12 | 221 | 14.5 | 25.7 | 0.00 | 0.00 | 0.00 | 87 | 1013.3 |
| 20260503213944 | 12 | 313 | 16.1 | 35.4 | 0.00 | 0.00 | 0.00 | 86 | 1013.2 |
| 20260503213443 | 12 | 315 | 14.5 | 35.4 | 0.00 | 0.00 | 0.00 | 86 | 1013.2 |
| 20260503212944 | 12 | 300 | 16.1 | 29.0 | 0.00 | 0.00 | 0.00 | 86 | 1013.1 |
| 20260503212442 | 12 | 302 | 17.7 | 30.6 | 0.00 | 0.00 | 0.00 | 86 | 1013.1 |
| 20260503211945 | 12 | 340 | 14.5 | 30.6 | 0.00 | 0.00 | 0.00 | 86 | 1013.2 |
| 20260503211442 | 12 | 315 | 12.9 | 22.5 | 0.00 | 0.00 | 0.00 | 86 | 1013.2 |
| 20260503210942 | 12 | 322 | 12.9 | 24.1 | 0.00 | 0.00 | 0.00 | 86 | 1013.3 |
| 20260503210442 | 12 | 264 | 14.5 | 24.1 | 0.00 | 0.00 | 0.00 | 86 | 1013.2 |
| 20260503205942 | 12 | 299 | 14.5 | 32.2 | 0.00 | 0.00 | 0.00 | 86 | 1013.2 |
| 20260503204942 | 12 | 344 | 14.5 | 25.7 | 0.00 | 0.00 | 0.00 | 87 | 1013.3 |
| 20260503204442 | 12 | 267 | 14.5 | 29.0 | 0.00 | 0.00 | 0.00 | 87 | 1013.2 |
| 20260503203445 | 12 | 275 | 14.5 | 32.2 | 0.00 | 0.00 | 0.00 | 87 | 1013.4 |
| 20260503202944 | 12 | 281 | 16.1 | 32.2 | 0.00 | 0.00 | 0.00 | 87 | 1013.3 |
| 20260503202440 | 12 | 273 | 16.1 | 29.0 | 0.00 | 0.00 | 0.00 | 86 | 1013.2 |
| 20260503201939 | 12 | 338 | 16.1 | 30.6 | 0.00 | 0.00 | 0.00 | 86 | 1013.2 |
| 20260503200941 | 12 | 313 | 16.1 | 29.0 | 0.00 | 0.00 | 0.00 | 87 | 1013.2 |
| 20260503200438 | 12 | 295 | 16.1 | 29.0 | 0.00 | 0.00 | 0.00 | 87 | 1013.2 |
| 20260503195436 | 12 | 321 | 17.7 | 35.4 | 0.00 | 0.00 | 0.00 | 87 | 1013.2 |
| 20260503194933 | 12 | 344 | 16.1 | 30.6 | 0.00 | 0.00 | 0.00 | 87 | 1013.3 |
| 20260503194433 | 12 | 295 | 17.7 | 35.4 | 0.00 | 0.00 | 0.00 | 87 | 1013.2 |
| 20260503193930 | 12 | 282 | 19.3 | 35.4 | 0.00 | 0.00 | 0.00 | 87 | 1013.1 |
| 20260503192932 | 12 | 281 | 17.7 | 33.8 | 0.00 | 0.00 | 0.00 | 88 | 1013.2 |
| 20260503191929 | 12 | 311 | 17.7 | 30.6 | 0.00 | 0.00 | 0.00 | 87 | 1013.0 |
| 20260503191426 | 12 | 267 | 14.5 | 29.0 | 0.00 | 0.00 | 0.00 | 88 | 1013.0 |
| 20260503190927 | 12 | 279 | 16.1 | 35.4 | 0.00 | 0.00 | 0.00 | 88 | 1013.0 |
| 20260503190428 | 12 | 273 | 17.7 | 35.4 | 0.00 | 0.00 | 0.00 | 88 | 1012.9 |
| 20260503185927 | 12 | 321 | 20.9 | 43.5 | 0.00 | 0.00 | 0.00 | 88 | 1012.5 |
| 20260503185426 | 12 | 320 | 20.9 | 43.5 | 0.00 | 0.00 | 0.00 | 88 | 1012.6 |
| 20260503184926 | 12 | 325 | 17.7 | 33.8 | 0.00 | 0.00 | 0.00 | 88 | 1012.6 |
| 20260503184428 | 12 | 262 | 14.5 | 30.6 | 0.00 | 0.00 | 0.00 | 88 | 1012.6 |
| 20260503183926 | 13 | 338 | 16.1 | 32.2 | 0.00 | 0.00 | 0.00 | 88 | 1012.8 |
| 20260503183429 | 13 | 315 | 16.1 | 32.2 | 0.00 | 0.00 | 0.00 | 88 | 1012.6 |
| 20260503182927 | 13 | 328 | 19.3 | 35.4 | 0.00 | 0.00 | 0.00 | 88 | 1012.8 |
| 20260503181923 | 13 | 351 | 16.1 | 38.6 | 0.00 | 0.00 | 0.00 | 87 | 1012.6 |
| 20260503181422 | 13 | 262 | 14.5 | 29.0 | 0.00 | 0.00 | 0.00 | 87 | 1012.5 |
| 20260503180927 | 13 | 235 | 16.1 | 32.2 | 0.00 | 0.00 | 0.00 | 87 | 1012.4 |
| 20260503175921 | 13 | 321 | 19.3 | 33.8 | 0.00 | 0.00 | 0.00 | 87 | 1012.1 |
| 20260503175422 | 13 | 9 | 19.3 | 33.8 | 0.00 | 0.00 | 0.00 | 87 | 1012.0 |
| 20260503174422 | 13 | 323 | 19.3 | 32.2 | 0.00 | 0.00 | 0.00 | 88 | 1011.8 |
| 20260503173919 | 13 | 249 | 19.3 | 35.4 | 0.00 | 0.00 | 0.00 | 88 | 1011.7 |
| 20260503173422 | 13 | 296 | 20.9 | 37.0 | 0.00 | 0.00 | 0.00 | 87 | 1011.6 |
| 20260503172920 | 13 | 338 | 19.3 | 37.0 | 0.00 | 0.00 | 0.00 | 88 | 1011.5 |
| 20260503172421 | 14 | 258 | 19.3 | 35.4 | 0.00 | 0.00 | 0.00 | 88 | 1011.3 |
| 20260503171919 | 14 | 282 | 19.3 | 33.8 | 0.00 | 0.00 | 0.00 | 88 | 1011.3 |
| 20260503171411 | 14 | 270 | 16.1 | 33.8 | 0.00 | 0.00 | 0.00 | 88 | 1011.4 |
| 20260503170916 | 14 | 284 | 16.1 | 32.2 | 0.00 | 0.00 | 0.00 | 88 | 1011.1 |
| 20260503170404 | 14 | 347 | 19.3 | 38.6 | 0.00 | 0.00 | 0.00 | 87 | 1010.9 |
| 20260503150856 | 16 | 280 | 16.1 | 29.0 | 0.00 | 0.00 | 0.00 | 83 | 1010.6 |